Time,TemperatureF,DewpointF,PressureIn,WindDirection,WindDirectionDegrees,WindSpeedMPH,WindSpeedGustMPH,Humidity,HourlyPrecipIn,Conditions,Clouds,dailyrainin,SoftwareType,DateUTC
2013-01-23 00:00:00,4.0,0.2,30.03,WNW,289,0.0,0.0,84,0.00,,,0.00,WUHU216DAVISVP2,2013-01-23 05:00:00,
2013-01-23 00:02:00,4.0,0.2,30.03,WNW,289,0.0,0.0,84,0.00,,,0.00,WUHU216DAVISVP2,2013-01-23 05:02:00,
2013-01-23 00:07:00,3.8,0.0,30.03,WNW,289,0.0,0.0,84,0.00,,,0.00,WUHU216DAVISVP2,2013-01-23 05:07:00,
2013-01-23 00:12:00,3.6,0.1,30.03,WNW,289,0.0,0.0,85,0.00,,,0.00,WUHU216DAVISVP2,2013-01-23 05:12:00,
2013-01-23 00:17:00,3.5,0.0,30.03,WNW,289,0.0,0.0,85,0.00,,,0.00,WUHU216DAVISVP2,2013-01-23 05:17:00,
2013-01-23 00:22:00,3.3,-0.2,30.03,WNW,289,0.0,0.0,85,0.00,,,0.00,WUHU216DAVISVP2,2013-01-23 05:22:00,
2013-01-23 00:27:00,3.2,-0.3,30.03,WNW,289,0.0,0.0,85,0.00,,,0.00,WUHU216DAVISVP2,2013-01-23 05:27:00,
2013-01-23 00:32:00,3.0,-0.5,30.03,WNW,289,0.0,0.0,85,0.00,,,0.00,WUHU216DAVISVP2,2013-01-23 05:32:00,
2013-01-23 00:37:00,2.9,-0.4,30.03,WNW,289,0.0,0.0,86,0.00,,,0.00,WUHU216DAVISVP2,2013-01-23 05:37:00,
2013-01-23 00:42:00,2.7,-0.6,30.03,WNW,289,0.0,0.0,86,0.00,,,0.00,WUHU216DAVISVP2,2013-01-23 05:42:00,
2013-01-23 00:47:00,2.6,-0.7,30.03,WNW,289,0.0,0.0,86,0.00,,,0.00,WUHU216DAVISVP2,2013-01-23 05:47:00,
2013-01-23 00:52:00,2.4,-0.9,30.03,WNW,289,0.0,1.0,86,0.00,,,0.00,WUHU216DAVISVP2,2013-01-23 05:52:00,
2013-01-23 00:57:00,2.2,-0.8,30.03,WNW,289,0.0,1.0,87,0.00,,,0.00,WUHU216DAVISVP2,2013-01-23 05:57:00,
2013-01-23 01:02:00,2.1,-0.9,30.02,WNW,289,0.0,1.0,87,0.00,,,0.00,WUHU216DAVISVP2,2013-01-23 06:02:00,
2013-01-23 01:07:00,1.9,-1.1,30.03,WNW,289,0.0,1.0,87,0.00,,,0.00,WUHU216DAVISVP2,2013-01-23 06:07:00,
2013-01-23 01:12:00,1.8,-1.2,30.03,WNW,289,0.0,0.0,87,0.00,,,0.00,WUHU216DAVISVP2,2013-01-23 06:12:00,
2013-01-23 01:17:00,1.6,-1.4,30.03,WNW,289,0.0,0.0,87,0.00,,,0.00,WUHU216DAVISVP2,2013-01-23 06:17:00,
2013-01-23 01:22:00,1.6,-1.4,30.03,WNW,289,0.0,0.0,87,0.00,,,0.00,WUHU216DAVISVP2,2013-01-23 06:22:00,
2013-01-23 01:27:00,1.6,-1.4,30.03,WNW,289,0.0,0.0,87,0.00,,,0.00,WUHU216DAVISVP2,2013-01-23 06:27:00,
2013-01-23 01:32:00,1.9,-1.1,30.03,WNW,288,0.0,2.0,87,0.00,,,0.00,WUHU216DAVISVP2,2013-01-23 06:32:00,
2013-01-23 01:37:00,2.2,-1.1,30.03,West,271,1.0,2.0,86,0.00,,,0.00,WUHU216DAVISVP2,2013-01-23 06:37:00,
2013-01-23 01:42:00,2.4,-0.9,30.03,West,265,0.0,2.0,86,0.00,,,0.00,WUHU216DAVISVP2,2013-01-23 06:42:00,
2013-01-23 01:47:00,2.4,-1.1,30.03,West,265,0.0,2.0,85,0.00,,,0.00,WUHU216DAVISVP2,2013-01-23 06:47:00,
2013-01-23 01:52:00,2.4,-1.1,30.03,West,265,0.0,2.0,85,0.00,,,0.00,WUHU216DAVISVP2,2013-01-23 06:52:00,
2013-01-23 01:57:00,2.4,-1.1,30.03,West,261,1.0,1.0,85,0.00,,,0.00,WUHU216DAVISVP2,2013-01-23 06:57:00,
2013-01-23 02:02:00,2.7,-1.1,30.03,WSW,256,0.0,1.0,84,0.00,,,0.00,WUHU216DAVISVP2,2013-01-23 07:02:00,
2013-01-23 02:07:00,2.8,-1.2,30.03,WSW,257,0.0,1.0,83,0.00,,,0.00,WUHU216DAVISVP2,2013-01-23 07:07:00,
2013-01-23 02:12:00,2.9,-1.1,30.03,WSW,256,0.0,1.0,83,0.00,,,0.00,WUHU216DAVISVP2,2013-01-23 07:12:00,
2013-01-23 02:17:00,2.9,-1.1,30.03,WSW,257,0.0,1.0,83,0.00,,,0.00,WUHU216DAVISVP2,2013-01-23 07:17:00,
2013-01-23 02:22:00,3.0,-1.3,30.03,WSW,257,0.0,1.0,82,0.00,,,0.00,WUHU216DAVISVP2,2013-01-23 07:22:00,
2013-01-23 02:27:00,3.1,-1.4,30.03,WSW,256,0.0,0.0,81,0.00,,,0.00,WUHU216DAVISVP2,2013-01-23 07:27:00,
2013-01-23 02:32:00,3.3,-1.2,30.03,WSW,257,0.0,0.0,81,0.00,,,0.00,WUHU216DAVISVP2,2013-01-23 07:32:00,
2013-01-23 02:37:00,3.9,-1.2,30.03,SW,232,1.9,3.0,79,0.00,,,0.00,WUHU216DAVISVP2,2013-01-23 07:37:00,
2013-01-23 02:42:00,5.1,-0.3,30.03,SW,230,3.1,8.0,78,0.00,,,0.00,WUHU216DAVISVP2,2013-01-23 07:42:00,
2013-01-23 02:47:00,5.9,-0.3,30.03,SW,228,3.0,8.0,75,0.00,,,0.00,WUHU216DAVISVP2,2013-01-23 07:47:00,
2013-01-23 02:53:00,6.5,0.0,30.03,WSW,238,2.5,8.0,74,0.00,,,0.00,WUHU216DAVISVP2,2013-01-23 07:53:00,
2013-01-23 02:58:00,6.8,0.0,30.03,NW,323,3.3,8.0,73,0.00,,,0.00,WUHU216DAVISVP2,2013-01-23 07:58:00,
2013-01-23 03:03:00,6.9,0.1,30.03,SW,216,2.3,7.0,73,0.00,,,0.00,WUHU216DAVISVP2,2013-01-23 08:03:00,
2013-01-23 03:08:00,6.9,-0.2,30.03,SSW,204,2.3,7.0,72,0.00,,,0.00,WUHU216DAVISVP2,2013-01-23 08:08:00,
2013-01-23 03:13:00,6.8,-0.6,30.03,NW,313,1.8,5.0,71,0.00,,,0.00,WUHU216DAVISVP2,2013-01-23 08:13:00,
2013-01-23 03:18:00,6.5,-1.2,30.03,West,279,4.4,10.0,70,0.00,,,0.00,WUHU216DAVISVP2,2013-01-23 08:18:00,
2013-01-23 03:23:00,6.3,-1.7,30.03,West,269,2.2,10.0,69,0.00,,,0.00,WUHU216DAVISVP2,2013-01-23 08:23:00,
2013-01-23 03:28:00,6.1,-2.8,30.03,NW,317,2.0,10.0,66,0.00,,,0.00,WUHU216DAVISVP2,2013-01-23 08:28:00,
2013-01-23 03:33:00,6.1,-3.1,30.03,West,270,1.0,10.0,65,0.00,,,0.00,WUHU216DAVISVP2,2013-01-23 08:33:00,
2013-01-23 03:38:00,6.0,-3.5,30.04,SW,233,1.5,6.0,64,0.00,,,0.00,WUHU216DAVISVP2,2013-01-23 08:38:00,
2013-01-23 03:43:00,6.1,-4.1,30.04,WNW,293,3.6,8.0,62,0.00,,,0.00,WUHU216DAVISVP2,2013-01-23 08:43:00,
2013-01-23 03:48:00,6.3,-5.0,30.03,WSW,248,4.0,8.0,59,0.00,,,0.00,WUHU216DAVISVP2,2013-01-23 08:48:00,
2013-01-23 03:53:00,6.6,-5.8,30.04,North,9,3.0,8.0,56,0.00,,,0.00,WUHU216DAVISVP2,2013-01-23 08:53:00,
2013-01-23 03:58:00,6.7,-5.7,30.04,NW,306,8.0,8.0,56,0.00,,,0.00,WUHU216DAVISVP2,2013-01-23 08:58:00,
2013-01-23 04:03:00,6.8,-6.4,30.04,SSW,196,5.0,10.0,54,0.00,,,0.00,WUHU216DAVISVP2,2013-01-23 09:03:00,
2013-01-23 04:08:00,6.8,-6.4,30.04,West,262,2.5,10.0,54,0.00,,,0.00,WUHU216DAVISVP2,2013-01-23 09:08:00,
2013-01-23 04:13:00,7.0,-7.8,30.04,WNW,285,4.3,11.0,50,0.00,,,0.00,WUHU216DAVISVP2,2013-01-23 09:13:00,
2013-01-23 04:18:00,7.1,-8.1,30.04,NW,319,6.0,11.0,49,0.00,,,0.00,WUHU216DAVISVP2,2013-01-23 09:18:00,
2013-01-23 04:23:00,7.0,-8.7,30.04,NNW,336,4.7,11.0,48,0.00,,,0.00,WUHU216DAVISVP2,2013-01-23 09:23:00,
2013-01-23 04:28:00,7.0,-9.5,30.04,West,281,4.7,11.0,46,0.00,,,0.00,WUHU216DAVISVP2,2013-01-23 09:28:00,
2013-01-23 04:33:00,6.8,-8.8,30.05,West,280,3.5,10.0,48,0.00,,,0.00,WUHU216DAVISVP2,2013-01-23 09:33:00,
2013-01-23 04:38:00,6.8,-8.8,30.05,WSW,245,1.8,10.0,48,0.00,,,0.00,WUHU216DAVISVP2,2013-01-23 09:38:00,
2013-01-23 04:43:00,6.6,-9.0,30.05,WSW,249,2.5,10.0,48,0.00,,,0.00,WUHU216DAVISVP2,2013-01-23 09:43:00,
2013-01-23 04:48:00,6.5,-9.6,30.05,West,274,2.1,7.0,47,0.00,,,0.00,WUHU216DAVISVP2,2013-01-23 09:48:00,
2013-01-23 04:53:00,6.4,-9.6,30.05,SW,234,4.0,12.0,47,0.00,,,0.00,WUHU216DAVISVP2,2013-01-23 09:53:00,
2013-01-23 04:58:00,6.3,-9.7,30.05,West,278,3.9,12.0,47,0.00,,,0.00,WUHU216DAVISVP2,2013-01-23 09:58:00,
2013-01-23 05:03:00,6.2,-9.8,30.06,WNW,301,4.2,12.0,47,0.00,,,0.00,WUHU216DAVISVP2,2013-01-23 10:03:00,
2013-01-23 05:08:00,6.2,-10.3,30.06,NNW,327,5.1,13.0,46,0.00,,,0.00,WUHU216DAVISVP2,2013-01-23 10:08:00,
2013-01-23 05:13:00,6.1,-9.5,30.06,North,360,5.0,13.0,48,0.00,,,0.00,WUHU216DAVISVP2,2013-01-23 10:13:00,
2013-01-23 05:18:00,6.0,-9.6,30.06,NW,317,3.0,13.0,48,0.00,,,0.00,WUHU216DAVISVP2,2013-01-23 10:18:00,
2013-01-23 05:23:00,5.8,-9.7,30.07,NNE,31,1.0,13.0,48,0.00,,,0.00,WUHU216DAVISVP2,2013-01-23 10:23:00,
2013-01-23 05:28:00,5.6,-9.9,30.07,NNE,22,1.6,5.0,48,0.00,,,0.00,WUHU216DAVISVP2,2013-01-23 10:28:00,
2013-01-23 05:33:00,5.3,-8.9,30.07,ENE,76,5.0,7.0,51,0.00,,,0.00,WUHU216DAVISVP2,2013-01-23 10:33:00,
2013-01-23 05:38:00,4.1,-5.4,30.08,NNE,27,3.7,7.0,64,0.00,,,0.00,WUHU216DAVISVP2,2013-01-23 10:38:00,
2013-01-23 05:43:00,3.3,-4.5,30.08,NE,52,2.0,7.0,69,0.00,,,0.00,WUHU216DAVISVP2,2013-01-23 10:43:00,
2013-01-23 05:48:00,2.8,-4.4,30.08,NE,46,3.0,7.0,71,0.00,,,0.00,WUHU216DAVISVP2,2013-01-23 10:48:00,
2013-01-23 05:53:00,2.6,-4.0,30.08,NE,56,1.1,5.0,73,0.00,,,0.00,WUHU216DAVISVP2,2013-01-23 10:53:00,
2013-01-23 05:58:00,2.3,-4.1,30.08,NNW,333,1.2,4.0,74,0.00,,,0.00,WUHU216DAVISVP2,2013-01-23 10:58:00,
2013-01-23 06:03:00,2.2,-3.9,30.08,NNW,333,0.0,4.0,75,0.00,,,0.00,WUHU216DAVISVP2,2013-01-23 11:03:00,
2013-01-23 06:08:00,2.0,-4.1,30.08,NNW,333,1.0,3.0,75,0.00,,,0.00,WUHU216DAVISVP2,2013-01-23 11:08:00,
2013-01-23 06:13:00,1.8,-4.0,30.08,NNE,17,1.6,3.0,76,0.00,,,0.00,WUHU216DAVISVP2,2013-01-23 11:13:00,
2013-01-23 06:18:00,1.6,-3.9,30.09,NNE,17,1.0,3.0,77,0.00,,,0.00,WUHU216DAVISVP2,2013-01-23 11:18:00,
2013-01-23 06:23:00,1.4,-4.1,30.09,NNE,17,1.0,3.0,77,0.00,,,0.00,WUHU216DAVISVP2,2013-01-23 11:23:00,
2013-01-23 06:28:00,1.3,-4.0,30.09,NNE,17,0.0,3.0,78,0.00,,,0.00,WUHU216DAVISVP2,2013-01-23 11:28:00,
2013-01-23 06:33:00,1.1,-4.2,30.09,NNE,17,0.0,1.0,78,0.00,,,0.00,WUHU216DAVISVP2,2013-01-23 11:33:00,
2013-01-23 06:38:00,0.9,-4.1,30.09,NNE,17,0.0,1.0,79,0.00,,,0.00,WUHU216DAVISVP2,2013-01-23 11:38:00,
2013-01-23 06:43:00,0.8,-4.2,30.09,NNE,17,0.0,1.0,79,0.00,,,0.00,WUHU216DAVISVP2,2013-01-23 11:43:00,
2013-01-23 06:48:00,0.5,-4.2,30.09,NNE,17,0.0,1.0,80,0.00,,,0.00,WUHU216DAVISVP2,2013-01-23 11:48:00,
2013-01-23 06:53:00,0.2,-4.5,30.10,NNE,17,1.0,1.0,80,0.00,,,0.00,WUHU216DAVISVP2,2013-01-23 11:53:00,
2013-01-23 06:58:00,0.2,-4.5,30.10,NNE,17,0.0,1.0,80,0.00,,,0.00,WUHU216DAVISVP2,2013-01-23 11:58:00,
2013-01-23 07:03:00,0.2,-4.3,30.10,NNE,17,0.0,1.0,81,0.00,,,0.00,WUHU216DAVISVP2,2013-01-23 12:03:00,
2013-01-23 07:08:00,0.1,-4.4,30.10,NNE,17,0.0,1.0,81,0.00,,,0.00,WUHU216DAVISVP2,2013-01-23 12:08:00,
2013-01-23 07:13:00,0.0,-4.7,30.10,NNE,17,0.0,0.0,80,0.00,,,0.00,WUHU216DAVISVP2,2013-01-23 12:13:00,
2013-01-23 07:18:00,-0.1,-4.8,30.10,East,90,1.0,3.0,80,0.00,,,0.00,WUHU216DAVISVP2,2013-01-23 12:18:00,
2013-01-23 07:23:00,-0.2,-4.9,30.10,ENE,76,3.0,4.0,80,0.00,,,0.00,WUHU216DAVISVP2,2013-01-23 12:23:00,
2013-01-23 07:28:00,0.0,-5.2,30.10,NNE,28,1.7,4.0,78,0.00,,,0.00,WUHU216DAVISVP2,2013-01-23 12:28:00,
2013-01-23 07:33:00,0.0,-5.2,30.11,NNE,29,0.0,4.0,78,0.00,,,0.00,WUHU216DAVISVP2,2013-01-23 12:33:00,
2013-01-23 07:38:00,0.0,-5.5,30.11,NNE,29,0.0,4.0,77,0.00,,,0.00,WUHU216DAVISVP2,2013-01-23 12:38:00,
2013-01-23 07:43:00,0.0,-5.5,30.11,NNE,29,0.0,3.0,77,0.00,,,0.00,WUHU216DAVISVP2,2013-01-23 12:43:00,
2013-01-23 07:48:00,0.0,-5.7,30.11,NNE,27,1.0,2.0,76,0.00,,,0.00,WUHU216DAVISVP2,2013-01-23 12:48:00,
2013-01-23 07:53:00,0.1,-5.9,30.11,NNE,27,0.0,2.0,75,0.00,,,0.00,WUHU216DAVISVP2,2013-01-23 12:53:00,
2013-01-23 07:58:00,0.1,-5.6,30.11,NNE,27,0.0,2.0,76,0.00,,,0.00,WUHU216DAVISVP2,2013-01-23 12:58:00,
2013-01-23 08:03:00,0.1,-5.6,30.11,NNE,22,3.0,4.0,76,0.00,,,0.00,WUHU216DAVISVP2,2013-01-23 13:03:00,
2013-01-23 08:08:00,0.2,-6.1,30.12,North,355,1.3,4.0,74,0.00,,,0.00,WUHU216DAVISVP2,2013-01-23 13:08:00,
2013-01-23 08:13:00,0.4,-5.9,30.12,NNE,24,1.5,4.0,74,0.00,,,0.00,WUHU216DAVISVP2,2013-01-23 13:13:00,
2013-01-23 08:18:00,0.6,-6.0,30.12,NW,324,4.0,5.0,73,0.00,,,0.00,WUHU216DAVISVP2,2013-01-23 13:18:00,
2013-01-23 08:23:00,0.7,-6.2,30.12,North,359,2.2,5.0,72,0.00,,,0.00,WUHU216DAVISVP2,2013-01-23 13:23:00,
2013-01-23 08:28:00,0.9,-6.0,30.12,NE,40,2.0,5.0,72,0.00,,,0.00,WUHU216DAVISVP2,2013-01-23 13:28:00,
2013-01-23 08:33:00,1.2,-6.0,30.12,NE,34,2.9,5.0,71,0.00,,,0.00,WUHU216DAVISVP2,2013-01-23 13:33:00,
2013-01-23 08:38:00,1.3,-6.2,30.12,NNE,15,1.9,5.0,70,0.00,,,0.00,WUHU216DAVISVP2,2013-01-23 13:38:00,
2013-01-23 08:43:00,1.5,-6.0,30.12,North,350,2.3,5.0,70,0.00,,,0.00,WUHU216DAVISVP2,2013-01-23 13:43:00,
2013-01-23 08:48:00,1.6,-6.2,30.13,North,5,3.8,6.0,69,0.00,,,0.00,WUHU216DAVISVP2,2013-01-23 13:48:00,
2013-01-23 08:53:00,1.8,-6.3,30.13,NNE,13,2.3,6.0,68,0.00,,,0.00,WUHU216DAVISVP2,2013-01-23 13:53:00,
2013-01-23 08:58:00,2.2,-5.9,30.13,NNW,342,2.1,6.0,68,0.00,,,0.00,WUHU216DAVISVP2,2013-01-23 13:58:00,
2013-01-23 09:03:00,2.4,-6.1,30.13,NE,39,2.0,6.0,67,0.00,,,0.00,WUHU216DAVISVP2,2013-01-23 14:03:00,
2013-01-23 09:08:00,2.7,-6.0,30.13,NNE,29,3.7,7.0,66,0.00,,,0.00,WUHU216DAVISVP2,2013-01-23 14:08:00,
2013-01-23 09:13:00,2.8,-6.3,30.12,NNE,18,2.9,7.0,65,0.00,,,0.00,WUHU216DAVISVP2,2013-01-23 14:13:00,
2013-01-23 09:18:00,3.0,-6.1,30.12,NW,326,4.0,7.0,65,0.00,,,0.00,WUHU216DAVISVP2,2013-01-23 14:18:00,
2013-01-23 09:23:00,3.2,-6.5,30.12,North,352,4.3,7.0,63,0.00,,,0.00,WUHU216DAVISVP2,2013-01-23 14:23:00,
2013-01-23 09:28:00,3.5,-5.6,30.12,NW,306,1.8,7.0,65,0.00,,,0.00,WUHU216DAVISVP2,2013-01-23 14:28:00,
2013-01-23 09:33:00,3.7,-6.4,30.13,North,6,3.7,7.0,62,0.00,,,0.00,WUHU216DAVISVP2,2013-01-23 14:33:00,
2013-01-23 09:38:00,3.8,-6.7,30.12,NW,323,3.3,7.0,61,0.00,,,0.00,WUHU216DAVISVP2,2013-01-23 14:38:00,
2013-01-23 09:43:00,4.1,-6.4,30.12,North,5,3.0,7.0,61,0.00,,,0.00,WUHU216DAVISVP2,2013-01-23 14:43:00,
2013-01-23 09:48:00,4.5,-6.7,30.12,NW,316,3.0,7.0,59,0.00,,,0.00,WUHU216DAVISVP2,2013-01-23 14:48:00,
2013-01-23 09:53:00,4.9,-7.7,30.12,WNW,293,6.0,10.0,55,0.00,,,0.00,WUHU216DAVISVP2,2013-01-23 14:53:00,
2013-01-23 09:58:00,5.0,-8.4,30.12,WNW,293,4.0,10.0,53,0.00,,,0.00,WUHU216DAVISVP2,2013-01-23 14:58:00,
2013-01-23 10:03:00,5.4,-8.5,30.12,NNE,23,3.7,10.0,52,0.00,,,0.00,WUHU216DAVISVP2,2013-01-23 15:03:00,
2013-01-23 10:08:00,5.4,-9.3,30.12,North,1,3.8,10.0,50,0.00,,,0.00,WUHU216DAVISVP2,2013-01-23 15:08:00,
2013-01-23 10:13:00,5.5,-9.6,30.12,West,259,4.9,10.0,49,0.00,,,0.00,WUHU216DAVISVP2,2013-01-23 15:13:00,
2013-01-23 10:18:00,5.9,-9.2,30.12,NW,304,7.0,11.0,49,0.00,,,0.00,WUHU216DAVISVP2,2013-01-23 15:18:00,
2013-01-23 10:23:00,6.0,-9.6,30.12,NNE,15,2.0,11.0,48,0.00,,,0.00,WUHU216DAVISVP2,2013-01-23 15:23:00,
2013-01-23 10:28:00,6.3,-10.2,30.11,WNW,297,3.3,11.0,46,0.00,,,0.00,WUHU216DAVISVP2,2013-01-23 15:28:00,
2013-01-23 10:33:00,6.5,-10.9,30.12,NW,317,8.0,12.0,44,0.00,,,0.00,WUHU216DAVISVP2,2013-01-23 15:33:00,
2013-01-23 10:38:00,6.3,-12.1,30.11,NW,308,3.1,16.0,42,0.00,,,0.00,WUHU216DAVISVP2,2013-01-23 15:38:00,
2013-01-23 10:43:00,6.7,-11.7,30.11,NW,323,2.9,16.0,42,0.00,,,0.00,WUHU216DAVISVP2,2013-01-23 15:43:00,
2013-01-23 10:48:00,6.6,-11.8,30.11,North,357,6.3,16.0,42,0.00,,,0.00,WUHU216DAVISVP2,2013-01-23 15:48:00,
2013-01-23 10:53:00,6.8,-11.6,30.11,NNE,31,2.8,16.0,42,0.00,,,0.00,WUHU216DAVISVP2,2013-01-23 15:53:00,
2013-01-23 10:58:00,7.1,-11.3,30.11,SSE,165,4.0,12.0,42,0.00,,,0.00,WUHU216DAVISVP2,2013-01-23 15:58:00,
2013-01-23 11:03:00,7.2,-11.2,30.10,WNW,297,2.3,14.0,42,0.00,,,0.00,WUHU216DAVISVP2,2013-01-23 16:03:00,
2013-01-23 11:08:00,7.3,-11.6,30.10,WNW,286,3.1,14.0,41,0.00,,,0.00,WUHU216DAVISVP2,2013-01-23 16:08:00,
2013-01-23 11:13:00,7.3,-11.1,30.10,WNW,286,9.0,14.0,42,0.00,,,0.00,WUHU216DAVISVP2,2013-01-23 16:13:00,
2013-01-23 11:18:00,7.1,-11.8,30.09,West,266,3.3,14.0,41,0.00,,,0.00,WUHU216DAVISVP2,2013-01-23 16:18:00,
2013-01-23 11:23:00,7.2,-12.1,30.09,WNW,286,5.6,15.0,40,0.00,,,0.00,WUHU216DAVISVP2,2013-01-23 16:23:00,
2013-01-23 11:28:00,7.3,-11.6,30.10,WNW,282,3.7,15.0,41,0.00,,,0.00,WUHU216DAVISVP2,2013-01-23 16:28:00,
2013-01-23 11:33:00,7.4,-12.6,30.09,NNW,327,6.5,15.0,39,0.00,,,0.00,WUHU216DAVISVP2,2013-01-23 16:33:00,
2013-01-23 11:38:00,7.9,-11.1,30.09,WNW,283,6.2,15.0,41,0.00,,,0.00,WUHU216DAVISVP2,2013-01-23 16:38:00,
2013-01-23 11:43:00,7.8,-12.7,30.09,WNW,289,4.7,18.0,38,0.00,,,0.00,WUHU216DAVISVP2,2013-01-23 16:43:00,
2013-01-23 11:48:00,7.8,-12.2,30.09,NW,325,3.5,18.0,39,0.00,,,0.00,WUHU216DAVISVP2,2013-01-23 16:48:00,
2013-01-23 11:53:00,8.1,-11.4,30.09,SW,214,5.0,18.0,40,0.00,,,0.00,WUHU216DAVISVP2,2013-01-23 16:53:00,
2013-01-23 11:58:00,8.3,-12.3,30.09,NNE,14,2.6,15.0,38,0.00,,,0.00,WUHU216DAVISVP2,2013-01-23 16:58:00,
2013-01-23 12:03:00,8.6,-12.0,30.08,SW,235,6.0,15.0,38,0.00,,,0.00,WUHU216DAVISVP2,2013-01-23 17:03:00,
2013-01-23 12:08:00,8.6,-13.1,30.09,NW,313,2.8,15.0,36,0.00,,,0.00,WUHU216DAVISVP2,2013-01-23 17:08:00,
2013-01-23 12:13:00,9.1,-11.0,30.08,NNW,327,4.0,12.0,39,0.00,,,0.00,WUHU216DAVISVP2,2013-01-23 17:13:00,
2013-01-23 12:18:00,8.9,-12.8,30.08,North,4,5.5,12.0,36,0.00,,,0.00,WUHU216DAVISVP2,2013-01-23 17:18:00,
2013-01-23 12:23:00,8.8,-12.9,30.08,NNE,19,9.0,14.0,36,0.00,,,0.00,WUHU216DAVISVP2,2013-01-23 17:23:00,
2013-01-23 12:28:00,8.9,-12.8,30.07,NE,40,8.0,14.0,36,0.00,,,0.00,WUHU216DAVISVP2,2013-01-23 17:28:00,
2013-01-23 12:33:00,9.0,-12.7,30.07,NNW,329,7.0,14.0,36,0.00,,,0.00,WUHU216DAVISVP2,2013-01-23 17:33:00,
2013-01-23 12:38:00,9.3,-12.5,30.07,SW,220,3.4,14.0,36,0.00,,,0.00,WUHU216DAVISVP2,2013-01-23 17:38:00,
2013-01-23 12:43:00,9.4,-12.4,30.07,NNW,334,3.6,12.0,36,0.00,,,0.00,WUHU216DAVISVP2,2013-01-23 17:43:00,
2013-01-23 12:48:00,9.5,-12.3,30.07,NW,311,3.6,12.0,36,0.00,,,0.00,WUHU216DAVISVP2,2013-01-23 17:48:00,
2013-01-23 12:53:00,9.7,-12.7,30.07,WNW,291,4.1,12.0,35,0.00,,,0.00,WUHU216DAVISVP2,2013-01-23 17:53:00,
2013-01-23 12:58:00,9.7,-12.1,30.07,NW,319,3.9,12.0,36,0.00,,,0.00,WUHU216DAVISVP2,2013-01-23 17:58:00,
2013-01-23 13:03:00,9.8,-12.6,30.07,WNW,295,2.6,12.0,35,0.00,,,0.00,WUHU216DAVISVP2,2013-01-23 18:03:00,
2013-01-23 13:08:00,10.0,-12.4,30.06,West,279,4.5,12.0,35,0.00,,,0.00,WUHU216DAVISVP2,2013-01-23 18:08:00,
2013-01-23 13:13:00,9.8,-13.2,30.06,WNW,296,10.0,12.0,34,0.00,,,0.00,WUHU216DAVISVP2,2013-01-23 18:13:00,
2013-01-23 13:18:00,9.8,-12.6,30.07,WNW,282,3.7,14.0,35,0.00,,,0.00,WUHU216DAVISVP2,2013-01-23 18:18:00,
2013-01-23 13:23:00,9.8,-12.0,30.07,WNW,297,3.7,14.0,36,0.00,,,0.00,WUHU216DAVISVP2,2013-01-23 18:23:00,
2013-01-23 13:28:00,9.7,-12.7,30.06,North,358,5.9,14.0,35,0.00,,,0.00,WUHU216DAVISVP2,2013-01-23 18:28:00,
2013-01-23 13:33:00,9.8,-12.6,30.06,NNW,334,5.0,14.0,35,0.00,,,0.00,WUHU216DAVISVP2,2013-01-23 18:33:00,
2013-01-23 13:38:00,9.8,-12.6,30.06,NE,49,3.0,13.0,35,0.00,,,0.00,WUHU216DAVISVP2,2013-01-23 18:38:00,
2013-01-23 13:43:00,10.0,-12.4,30.06,NNW,339,1.9,11.0,35,0.00,,,0.00,WUHU216DAVISVP2,2013-01-23 18:43:00,
2013-01-23 13:48:00,10.1,-12.3,30.07,NW,305,3.3,11.0,35,0.00,,,0.00,WUHU216DAVISVP2,2013-01-23 18:48:00,
2013-01-23 13:53:00,9.9,-12.5,30.07,West,265,3.3,10.0,35,0.00,,,0.00,WUHU216DAVISVP2,2013-01-23 18:53:00,
2013-01-23 13:58:00,10.0,-12.4,30.07,SW,222,4.0,10.0,35,0.00,,,0.00,WUHU216DAVISVP2,2013-01-23 18:58:00,
2013-01-23 14:03:00,10.2,-12.2,30.07,West,277,7.0,12.0,35,0.00,,,0.00,WUHU216DAVISVP2,2013-01-23 19:03:00,
2013-01-23 14:08:00,10.3,-12.7,30.07,West,273,7.0,12.0,34,0.00,,,0.00,WUHU216DAVISVP2,2013-01-23 19:08:00,
2013-01-23 14:13:00,10.2,-12.2,30.07,NNW,346,3.0,12.0,35,0.00,,,0.00,WUHU216DAVISVP2,2013-01-23 19:13:00,
2013-01-23 14:18:00,10.2,-12.8,30.07,NNW,334,4.5,12.0,34,0.00,,,0.00,WUHU216DAVISVP2,2013-01-23 19:18:00,
2013-01-23 14:23:00,10.2,-12.8,30.07,NNW,342,3.3,12.0,34,0.00,,,0.00,WUHU216DAVISVP2,2013-01-23 19:23:00,
2013-01-23 14:28:00,10.0,-13.0,30.07,NW,318,3.3,12.0,34,0.00,,,0.00,WUHU216DAVISVP2,2013-01-23 19:28:00,
2013-01-23 14:33:00,10.0,-13.0,30.07,NW,312,9.0,12.0,34,0.00,,,0.00,WUHU216DAVISVP2,2013-01-23 19:33:00,
2013-01-23 14:38:00,10.0,-13.0,30.07,North,5,4.0,12.0,34,0.00,,,0.00,WUHU216DAVISVP2,2013-01-23 19:38:00,
2013-01-23 14:43:00,10.0,-13.0,30.07,NNE,22,4.0,12.0,34,0.00,,,0.00,WUHU216DAVISVP2,2013-01-23 19:43:00,
2013-01-23 14:48:00,10.1,-11.8,30.07,NW,317,3.0,12.0,36,0.00,,,0.00,WUHU216DAVISVP2,2013-01-23 19:48:00,
2013-01-23 14:53:00,10.3,-12.1,30.07,NW,324,6.0,9.0,35,0.00,,,0.00,WUHU216DAVISVP2,2013-01-23 19:53:00,
2013-01-23 14:58:00,10.0,-12.4,30.08,North,4,4.7,11.0,35,0.00,,,0.00,WUHU216DAVISVP2,2013-01-23 19:58:00,
2013-01-23 15:03:00,10.1,-12.3,30.08,NW,323,4.6,11.0,35,0.00,,,0.00,WUHU216DAVISVP2,2013-01-23 20:03:00,
2013-01-23 15:08:00,10.0,-12.4,30.07,NNE,21,5.0,16.0,35,0.00,,,0.00,WUHU216DAVISVP2,2013-01-23 20:08:00,
2013-01-23 15:13:00,9.9,-12.5,30.08,NW,326,2.2,16.0,35,0.00,,,0.00,WUHU216DAVISVP2,2013-01-23 20:13:00,
2013-01-23 15:18:00,9.8,-12.6,30.08,North,10,2.0,16.0,35,0.00,,,0.00,WUHU216DAVISVP2,2013-01-23 20:18:00,
2013-01-23 15:23:00,9.7,-12.7,30.08,NE,34,2.9,16.0,35,0.00,,,0.00,WUHU216DAVISVP2,2013-01-23 20:23:00,
2013-01-23 15:28:00,9.6,-12.8,30.08,NW,305,3.6,11.0,35,0.00,,,0.00,WUHU216DAVISVP2,2013-01-23 20:28:00,
2013-01-23 15:33:00,9.3,-13.0,30.08,NW,305,3.6,11.0,35,0.00,,,0.00,WUHU216DAVISVP2,2013-01-23 20:33:00,
2013-01-23 15:38:00,9.0,-12.7,30.08,NNW,338,4.0,11.0,36,0.00,,,0.00,WUHU216DAVISVP2,2013-01-23 20:38:00,
2013-01-23 15:43:00,9.0,-12.7,30.08,NNE,22,3.0,11.0,36,0.00,,,0.00,WUHU216DAVISVP2,2013-01-23 20:43:00,
2013-01-23 15:48:00,8.9,-12.8,30.08,NE,45,2.4,9.0,36,0.00,,,0.00,WUHU216DAVISVP2,2013-01-23 20:48:00,
2013-01-23 15:53:00,8.8,-12.9,30.08,NNW,327,1.8,8.0,36,0.00,,,0.00,WUHU216DAVISVP2,2013-01-23 20:53:00,
2013-01-23 15:58:00,8.8,-12.9,30.08,WNW,300,3.0,8.0,36,0.00,,,0.00,WUHU216DAVISVP2,2013-01-23 20:58:00,
2013-01-23 16:03:00,8.7,-13.0,30.08,WNW,303,2.2,8.0,36,0.00,,,0.00,WUHU216DAVISVP2,2013-01-23 21:03:00,
2013-01-23 16:08:00,8.6,-13.1,30.09,NE,37,3.0,8.0,36,0.00,,,0.00,WUHU216DAVISVP2,2013-01-23 21:08:00,
2013-01-23 16:13:00,8.6,-12.6,30.09,NNW,341,1.0,8.0,37,0.00,,,0.00,WUHU216DAVISVP2,2013-01-23 21:13:00,
2013-01-23 16:18:00,8.4,-12.7,30.09,NNE,20,3.9,9.0,37,0.00,,,0.00,WUHU216DAVISVP2,2013-01-23 21:18:00,
2013-01-23 16:23:00,8.3,-12.8,30.09,North,353,2.6,9.0,37,0.00,,,0.00,WUHU216DAVISVP2,2013-01-23 21:23:00,
2013-01-23 16:28:00,8.1,-13.5,30.09,NNW,336,4.0,9.0,36,0.00,,,0.00,WUHU216DAVISVP2,2013-01-23 21:28:00,
2013-01-23 16:33:00,8.0,-13.1,30.09,NNW,329,2.4,9.0,37,0.00,,,0.00,WUHU216DAVISVP2,2013-01-23 21:33:00,
2013-01-23 16:38:00,7.9,-12.6,30.09,SW,234,2.3,8.0,38,0.00,,,0.00,WUHU216DAVISVP2,2013-01-23 21:38:00,
2013-01-23 16:43:00,7.7,-12.8,30.09,NW,325,2.3,8.0,38,0.00,,,0.00,WUHU216DAVISVP2,2013-01-23 21:43:00,
2013-01-23 16:48:00,7.6,-12.4,30.09,North,353,3.0,9.0,39,0.00,,,0.00,WUHU216DAVISVP2,2013-01-23 21:48:00,
2013-01-23 16:53:00,7.4,-12.6,30.09,ENE,67,1.4,9.0,39,0.00,,,0.00,WUHU216DAVISVP2,2013-01-23 21:53:00,
2013-01-23 16:58:00,7.3,-13.2,30.09,NNW,345,2.3,9.0,38,0.00,,,0.00,WUHU216DAVISVP2,2013-01-23 21:58:00,
2013-01-23 17:03:00,7.2,-13.3,30.09,NNW,338,4.8,9.0,38,0.00,,,0.00,WUHU216DAVISVP2,2013-01-23 22:03:00,
2013-01-23 17:08:00,7.3,-12.7,30.09,NNE,31,8.0,9.0,39,0.00,,,0.00,WUHU216DAVISVP2,2013-01-23 22:08:00,
2013-01-23 17:13:00,7.2,-12.7,30.09,North,0,1.7,9.0,39,0.00,,,0.00,WUHU216DAVISVP2,2013-01-23 22:13:00,
2013-01-23 17:18:00,6.9,-12.5,30.10,North,0,1.0,9.0,40,0.00,,,0.00,WUHU216DAVISVP2,2013-01-23 22:18:00,
2013-01-23 17:23:00,6.6,-12.3,30.10,NNE,12,3.0,8.0,41,0.00,,,0.00,WUHU216DAVISVP2,2013-01-23 22:23:00,
2013-01-23 17:28:00,6.5,-12.4,30.09,NNW,339,3.1,5.0,41,0.00,,,0.00,WUHU216DAVISVP2,2013-01-23 22:28:00,
2013-01-23 17:33:00,6.5,-12.9,30.10,North,0,2.4,5.0,40,0.00,,,0.00,WUHU216DAVISVP2,2013-01-23 22:33:00,
2013-01-23 17:38:00,6.4,-13.0,30.10,North,360,2.0,5.0,40,0.00,,,0.00,WUHU216DAVISVP2,2013-01-23 22:38:00,
2013-01-23 17:43:00,6.3,-12.6,30.10,NNW,340,1.0,5.0,41,0.00,,,0.00,WUHU216DAVISVP2,2013-01-23 22:43:00,
2013-01-23 17:48:00,6.3,-13.1,30.10,NNE,25,2.1,5.0,40,0.00,,,0.00,WUHU216DAVISVP2,2013-01-23 22:48:00,
2013-01-23 17:53:00,6.2,-12.6,30.11,North,5,0.0,5.0,41,0.00,,,0.00,WUHU216DAVISVP2,2013-01-23 22:53:00,
2013-01-23 17:58:00,6.0,-12.8,30.10,North,354,1.6,5.0,41,0.00,,,0.00,WUHU216DAVISVP2,2013-01-23 22:58:00,
2013-01-23 18:03:00,5.8,-12.5,30.10,North,355,1.6,5.0,42,0.00,,,0.00,WUHU216DAVISVP2,2013-01-23 23:03:00,
2013-01-23 18:08:00,5.6,-12.7,30.11,North,355,1.5,4.0,42,0.00,,,0.00,WUHU216DAVISVP2,2013-01-23 23:08:00,
2013-01-23 18:13:00,5.4,-12.9,30.11,North,355,1.3,4.0,42,0.00,,,0.00,WUHU216DAVISVP2,2013-01-23 23:13:00,
2013-01-23 18:18:00,5.3,-12.5,30.11,North,355,2.0,3.0,43,0.00,,,0.00,WUHU216DAVISVP2,2013-01-23 23:18:00,
2013-01-23 18:23:00,5.1,-12.7,30.11,North,355,1.0,3.0,43,0.00,,,0.00,WUHU216DAVISVP2,2013-01-23 23:23:00,
2013-01-23 18:28:00,4.9,-11.9,30.11,North,355,1.1,2.0,45,0.00,,,0.00,WUHU216DAVISVP2,2013-01-23 23:28:00,
2013-01-23 18:33:00,4.7,-12.1,30.11,NNW,346,2.2,4.0,45,0.00,,,0.00,WUHU216DAVISVP2,2013-01-23 23:33:00,
2013-01-23 18:38:00,4.6,-11.7,30.11,NNW,343,1.4,4.0,46,0.00,,,0.00,WUHU216DAVISVP2,2013-01-23 23:38:00,
2013-01-23 18:43:00,4.5,-11.8,30.11,NNW,340,1.2,4.0,46,0.00,,,0.00,WUHU216DAVISVP2,2013-01-23 23:43:00,
2013-01-23 18:48:00,4.4,-11.5,30.11,West,264,3.2,6.0,47,0.00,,,0.00,WUHU216DAVISVP2,2013-01-23 23:48:00,
2013-01-23 18:53:00,4.1,-11.3,30.11,West,261,0.0,6.0,48,0.00,,,0.00,WUHU216DAVISVP2,2013-01-23 23:53:00,
2013-01-23 18:58:00,3.8,-11.1,30.11,West,261,0.0,6.0,49,0.00,,,0.00,WUHU216DAVISVP2,2013-01-23 23:58:00,
2013-01-23 19:03:00,3.5,-11.0,30.11,West,261,0.0,6.0,50,0.00,,,0.00,WUHU216DAVISVP2,2013-01-24 00:03:00,
2013-01-23 19:08:00,3.1,-9.8,30.11,West,261,0.0,1.0,54,0.00,,,0.00,WUHU216DAVISVP2,2013-01-24 00:08:00,
2013-01-23 19:13:00,2.7,-10.6,30.12,West,261,0.0,1.0,53,0.00,,,0.00,WUHU216DAVISVP2,2013-01-24 00:13:00,
2013-01-23 19:18:00,2.4,-10.9,30.12,West,261,0.0,0.0,53,0.00,,,0.00,WUHU216DAVISVP2,2013-01-24 00:18:00,
2013-01-23 19:23:00,2.2,-10.7,30.11,West,261,0.0,0.0,54,0.00,,,0.00,WUHU216DAVISVP2,2013-01-24 00:23:00,
2013-01-23 19:28:00,2.0,-10.1,30.11,West,261,0.0,0.0,56,0.00,,,0.00,WUHU216DAVISVP2,2013-01-24 00:28:00,
2013-01-23 19:33:00,1.9,-10.2,30.12,West,261,0.0,0.0,56,0.00,,,0.00,WUHU216DAVISVP2,2013-01-24 00:33:00,
2013-01-23 19:38:00,1.8,-10.3,30.12,West,261,0.0,0.0,56,0.00,,,0.00,WUHU216DAVISVP2,2013-01-24 00:38:00,
2013-01-23 19:43:00,1.7,-10.0,30.11,West,261,0.0,0.0,57,0.00,,,0.00,WUHU216DAVISVP2,2013-01-24 00:43:00,
2013-01-23 19:48:00,1.5,-10.2,30.12,West,261,0.0,0.0,57,0.00,,,0.00,WUHU216DAVISVP2,2013-01-24 00:48:00,
2013-01-23 19:53:00,1.2,-10.5,30.12,West,261,0.0,0.0,57,0.00,,,0.00,WUHU216DAVISVP2,2013-01-24 00:53:00,
2013-01-23 19:58:00,1.1,-9.5,30.12,West,261,0.0,0.0,60,0.00,,,0.00,WUHU216DAVISVP2,2013-01-24 00:58:00,
2013-01-23 20:03:00,0.9,-10.1,30.12,West,261,0.0,1.0,59,0.00,,,0.00,WUHU216DAVISVP2,2013-01-24 01:03:00,
2013-01-23 20:08:00,0.9,-10.4,30.12,West,261,0.0,1.0,58,0.00,,,0.00,WUHU216DAVISVP2,2013-01-24 01:08:00,
2013-01-23 20:13:00,0.8,-9.8,30.12,West,261,0.0,1.0,60,0.00,,,0.00,WUHU216DAVISVP2,2013-01-24 01:13:00,
2013-01-23 20:18:00,0.5,-9.7,30.12,WNW,286,2.0,4.0,61,0.00,,,0.00,WUHU216DAVISVP2,2013-01-24 01:18:00,
2013-01-23 20:23:00,0.5,-9.7,30.12,NNW,333,0.0,4.0,61,0.00,,,0.00,WUHU216DAVISVP2,2013-01-24 01:23:00,
2013-01-23 20:28:00,0.3,-9.7,30.12,NNW,333,0.0,4.0,62,0.00,,,0.00,WUHU216DAVISVP2,2013-01-24 01:28:00,
2013-01-23 20:33:00,0.1,-9.5,30.12,NNW,333,0.0,4.0,63,0.00,,,0.00,WUHU216DAVISVP2,2013-01-24 01:33:00,
2013-01-23 20:38:00,-0.1,-9.7,30.12,NNW,333,0.0,1.0,63,0.00,,,0.00,WUHU216DAVISVP2,2013-01-24 01:38:00,
2013-01-23 20:43:00,-0.2,-9.5,30.12,NNW,333,0.0,1.0,64,0.00,,,0.00,WUHU216DAVISVP2,2013-01-24 01:43:00,
2013-01-23 20:48:00,-0.1,-8.8,30.12,NNW,333,0.0,1.0,66,0.00,,,0.00,WUHU216DAVISVP2,2013-01-24 01:48:00,
2013-01-23 20:53:00,-0.1,-9.4,30.12,NNW,333,1.0,1.0,64,0.00,,,0.00,WUHU216DAVISVP2,2013-01-24 01:53:00,
2013-01-23 20:58:00,0.0,-9.3,30.12,NNW,333,0.0,1.0,64,0.00,,,0.00,WUHU216DAVISVP2,2013-01-24 01:58:00,
2013-01-23 21:03:00,0.0,-9.6,30.12,NNW,333,0.0,1.0,63,0.00,,,0.00,WUHU216DAVISVP2,2013-01-24 02:03:00,
2013-01-23 21:08:00,-0.2,-9.8,30.12,NNW,333,0.0,1.0,63,0.00,,,0.00,WUHU216DAVISVP2,2013-01-24 02:08:00,
2013-01-23 21:13:00,-0.3,-9.9,30.12,NNW,333,1.2,2.0,63,0.00,,,0.00,WUHU216DAVISVP2,2013-01-24 02:13:00,
2013-01-23 21:18:00,-0.1,-9.1,30.13,NNW,333,1.0,2.0,65,0.00,,,0.00,WUHU216DAVISVP2,2013-01-24 02:18:00,
2013-01-23 21:23:00,0.1,-9.9,30.13,North,355,0.0,2.0,62,0.00,,,0.00,WUHU216DAVISVP2,2013-01-24 02:23:00,
2013-01-23 21:28:00,0.3,-10.3,30.12,NNE,33,2.0,3.0,60,0.00,,,0.00,WUHU216DAVISVP2,2013-01-24 02:28:00,
2013-01-23 21:33:00,0.4,-10.2,30.12,NNE,33,1.2,3.0,60,0.00,,,0.00,WUHU216DAVISVP2,2013-01-24 02:33:00,
2013-01-23 21:38:00,0.4,-10.2,30.13,NNE,33,1.0,3.0,60,0.00,,,0.00,WUHU216DAVISVP2,2013-01-24 02:38:00,
2013-01-23 21:43:00,0.4,-10.6,30.13,NNE,33,0.0,3.0,59,0.00,,,0.00,WUHU216DAVISVP2,2013-01-24 02:43:00,
2013-01-23 21:48:00,0.2,-9.7,30.13,NNE,33,0.0,2.0,62,0.00,,,0.00,WUHU216DAVISVP2,2013-01-24 02:48:00,
2013-01-23 21:53:00,-0.1,-9.7,30.13,NNE,33,0.0,2.0,63,0.00,,,0.00,WUHU216DAVISVP2,2013-01-24 02:53:00,
2013-01-23 21:58:00,-0.4,-9.9,30.13,NNE,23,1.5,3.0,63,0.00,,,0.00,WUHU216DAVISVP2,2013-01-24 02:58:00,
2013-01-23 22:04:00,-0.4,-10.3,30.13,NNE,22,1.0,3.0,62,0.00,,,0.00,WUHU216DAVISVP2,2013-01-24 03:04:00,
2013-01-23 22:09:00,-0.3,-10.2,30.13,NNE,22,0.0,3.0,62,0.00,,,0.00,WUHU216DAVISVP2,2013-01-24 03:09:00,
2013-01-23 22:14:00,-0.4,-9.9,30.12,NNE,22,0.0,3.0,63,0.00,,,0.00,WUHU216DAVISVP2,2013-01-24 03:14:00,
2013-01-23 22:19:00,-0.5,-10.0,30.12,NNE,22,1.3,3.0,63,0.00,,,0.00,WUHU216DAVISVP2,2013-01-24 03:19:00,
2013-01-23 22:24:00,-0.3,-10.2,30.12,NNE,19,0.0,3.0,62,0.00,,,0.00,WUHU216DAVISVP2,2013-01-24 03:24:00,
2013-01-23 22:29:00,-0.1,-10.3,30.12,NNW,342,1.3,3.0,61,0.00,,,0.00,WUHU216DAVISVP2,2013-01-24 03:29:00,
2013-01-23 22:34:00,0.0,-10.6,30.12,NNW,343,2.0,3.0,60,0.00,,,0.00,WUHU216DAVISVP2,2013-01-24 03:34:00,
2013-01-23 22:39:00,0.2,-10.0,30.11,ENE,77,1.0,3.0,61,0.00,,,0.00,WUHU216DAVISVP2,2013-01-24 03:39:00,
2013-01-23 22:44:00,0.4,-10.2,30.11,WNW,285,1.9,3.0,60,0.00,,,0.00,WUHU216DAVISVP2,2013-01-24 03:44:00,
2013-01-23 22:49:00,0.5,-10.4,30.11,NW,314,1.6,7.0,59,0.00,,,0.00,WUHU216DAVISVP2,2013-01-24 03:49:00,
2013-01-23 22:54:00,0.6,-10.3,30.11,NNW,344,1.9,7.0,59,0.00,,,0.00,WUHU216DAVISVP2,2013-01-24 03:54:00,
2013-01-23 22:59:00,0.6,-10.7,30.11,NW,311,1.3,7.0,58,0.00,,,0.00,WUHU216DAVISVP2,2013-01-24 03:59:00,
2013-01-23 23:04:00,0.6,-10.7,30.11,NNE,16,2.3,6.0,58,0.00,,,0.00,WUHU216DAVISVP2,2013-01-24 04:04:00,
2013-01-23 23:09:00,0.5,-11.1,30.12,NNW,340,1.0,4.0,57,0.00,,,0.00,WUHU216DAVISVP2,2013-01-24 04:09:00,
2013-01-23 23:14:00,0.5,-10.4,30.12,West,262,2.3,5.0,59,0.00,,,0.00,WUHU216DAVISVP2,2013-01-24 04:14:00,
2013-01-23 23:19:00,0.4,-10.9,30.12,West,264,1.6,5.0,58,0.00,,,0.00,WUHU216DAVISVP2,2013-01-24 04:19:00,
2013-01-23 23:24:00,0.1,-11.2,30.12,WSW,255,1.0,5.0,58,0.00,,,0.00,WUHU216DAVISVP2,2013-01-24 04:24:00,
2013-01-23 23:29:00,-0.1,-11.3,30.11,WSW,255,1.0,5.0,58,0.00,,,0.00,WUHU216DAVISVP2,2013-01-24 04:29:00,
2013-01-23 23:34:00,-0.3,-11.2,30.12,WSW,253,0.0,4.0,59,0.00,,,0.00,WUHU216DAVISVP2,2013-01-24 04:34:00,
2013-01-23 23:39:00,-0.6,-11.1,30.12,WSW,253,0.0,2.0,60,0.00,,,0.00,WUHU216DAVISVP2,2013-01-24 04:39:00,
2013-01-23 23:44:00,-1.0,-11.2,30.11,WSW,253,1.0,2.0,61,0.00,,,0.00,WUHU216DAVISVP2,2013-01-24 04:44:00,
2013-01-23 23:49:00,-1.5,-11.0,30.11,WSW,253,0.0,2.0,63,0.00,,,0.00,WUHU216DAVISVP2,2013-01-24 04:49:00,
2013-01-23 23:54:00,-1.9,-10.7,30.12,WSW,253,0.0,1.0,65,0.00,,,0.00,WUHU216DAVISVP2,2013-01-24 04:54:00,
2013-01-23 23:59:00,-2.2,-10.7,30.12,WSW,253,0.0,1.0,66,0.00,,,0.00,WUHU216DAVISVP2,2013-01-24 04:59:00,